Wind_Speed
18 19 19 19 19 19 19 18 18 18 18 17 17 17 16 17 18 18 19 20 21 22 23 23 23 22 21 20 19 18 17 16 15 14 13 11 10 10 9 9 9 9 9
19 19 19 20 20 19 19 19 19 18 17 17 16 16 16 16 17 18 18 20 21 22 23 22 22 22 21 21 19 18 18 18 16 15 14 13 12 11 10 9 9 8 8
19 19 19 20 19 19 19 18 18 17 16 16 15 15 15 16 17 17 17 19 21 23 23 23 23 22 22 22 21 20 20 20 18 16 15 15 14 12 12 11 9 9 9
19 19 20 20 19 18 18 18 17 16 15 14 14 13 14 15 17 17 17 19 21 22 24 24 23 23 23 22 22 21 21 20 19 18 17 16 15 14 13 12 10 9 9
19 19 20 19 19 18 18 17 16 15 14 13 12 12 13 14 16 17 17 19 20 22 23 24 24 24 24 24 23 23 22 21 20 19 18 18 17 16 14 13 12 11 10
19 20 20 19 19 18 18 17 16 14 13 12 11 10 11 13 15 17 17 19 20 22 22 23 24 24 24 24 24 24 23 22 21 20 19 19 18 17 16 14 13 12 11
19 19 19 19 19 18 17 16 15 14 13 12 10 9 8 10 12 15 17 19 20 22 22 22 23 24 24 24 24 24 23 22 22 21 20 21 19 18 17 16 14 13 12
18 19 19 18 18 18 17 16 15 14 13 11 9 7 7 8 11 14 16 18 19 21 22 22 23 25 25 24 24 24 23 22 22 22 21 21 20 19 18 17 15 14 13
18 18 19 18 18 18 17 16 14 13 12 10 8 6 5 7 9 12 15 17 18 19 21 22 23 24 25 25 25 24 24 23 23 23 22 21 21 20 19 18 17 16 15
18 18 19 18 18 17 16 15 14 13 12 10 8 6 4 6 8 11 13 16 17 18 19 21 21 22 23 23 25 24 24 24 24 23 23 22 22 21 21 20 19 18 16
17 18 18 18 17 17 16 16 14 13 12 10 8 6 4 4 6 9 12 14 16 17 19 20 21 22 22 23 25 25 25 25 24 24 23 23 23 22 22 22 21 19 18
17 17 18 18 17 17 16 16 15 13 12 10 8 6 4 3 4 7 10 13 15 16 18 20 20 22 23 23 24 25 24 25 24 24 24 24 24 24 24 23 22 21 20
17 17 17 17 17 17 16 15 15 13 12 10 8 6 4 3 3 6 8 11 13 14 16 17 19 20 22 23 23 24 23 24 24 24 23 23 23 24 24 24 24 23 22
18 17 17 17 17 16 16 15 15 14 12 10 9 6 4 3 2 4 6 8 11 13 15 17 18 20 21 22 22 23 23 23 23 24 24 23 22 23 24 24 24 24 24
18 18 18 17 17 17 16 16 15 15 13 11 9 7 5 4 3 4 6 7 9 12 14 16 18 19 20 22 22 22 23 23 23 23 24 23 23 24 24 24 24 25 25
18 19 18 18 17 17 17 16 15 14 13 11 10 8 6 5 4 5 6 7 9 11 13 15 17 19 20 21 22 22 22 23 23 24 24 23 23 23 24 25 24 25 25
18 19 19 19 18 18 18 16 15 14 13 12 11 9 8 7 6 5 6 8 9 11 13 14 16 18 19 21 21 22 23 23 23 23 23 23 24 23 23 24 25 26 26
19 19 19 19 19 19 18 18 16 15 14 13 12 10 9 9 8 8 8 9 10 11 13 14 15 17 18 19 20 22 23 24 24 24 23 24 24 25 25 25 25 25 26
21 21 21 20 20 20 19 18 18 16 15 14 13 12 11 10 10 10 10 11 11 12 13 14 15 16 18 19 20 20 22 23 24 24 24 24 24 24 25 26 26 26 26
22 22 22 22 21 21 20 20 19 18 16 15 14 13 12 12 12 12 11 12 13 13 15 15 16 17 18 19 20 20 21 22 23 24 25 25 25 25 25 26 26 27 27
23 23 23 23 23 23 22 22 21 20 19 18 17 15 14 14 13 13 13 13 14 15 15 16 17 18 18 19 20 22 22 23 24 25 25 26 26 27 27 27 28 28 28
24 25 25 25 25 24 24 24 23 22 21 20 19 18 17 16 16 15 15 15 16 16 16 16 17 19 19 20 21 22 23 24 24 25 26 26 27 27 27 27 28 28 29
27 27 27 27 27 27 27 27 26 26 24 23 23 22 20 19 19 19 18 17 17 18 19 19 19 19 20 21 22 23 23 23 24 24 26 26 27 27 27 28 28 29 29
30 30 30 30 31 30 30 30 30 29 28 27 26 25 24 23 22 22 22 21 20 20 21 21 21 22 22 22 23 24 24 25 25 25 26 26 27 27 28 28 29 29 29
32 33 34 34 34 34 34 33 33 32 31 30 29 29 28 27 26 26 25 25 24 24 23 24 24 24 24 24 25 25 26 26 26 26 27 27 28 28 28 28 28 29 29
35 36 37 38 37 37 37 36 36 36 35 34 33 33 32 31 30 29 29 28 27 27 26 26 26 26 26 27 27 27 27 27 27 27 28 28 29 29 28 29 28 28 28
Wind_Direction
324 322 321 319 317 314 309 304 300 299 295 289 282 271 261 253 246 241 235 230 226 222 219 217 213 213 213 211 212 210 209 206 202 201 194 189 186 177 170 163 156 150 144
327 326 324 323 320 317 314 309 304 301 295 289 283 271 259 251 243 239 234 228 223 219 217 215 212 214 214 212 213 211 208 207 205 202 198 194 191 186 183 176 169 164 157
331 330 328 326 323 321 319 315 310 305 298 290 282 271 258 248 239 236 232 226 222 218 216 215 213 214 213 213 213 211 209 207 206 204 201 199 196 192 190 185 180 176 172
334 333 332 330 327 325 324 321 317 311 305 295 285 273 259 247 237 233 229 223 221 218 217 215 213 214 214 214 214 210 208 206 208 206 205 203 201 197 195 192 190 187 185
337 336 336 334 332 330 329 327 324 319 312 303 291 277 260 248 236 228 224 220 219 216 216 214 214 214 214 215 215 210 207 208 209 207 206 206 206 204 201 198 196 194 193
341 340 339 338 336 335 334 332 329 325 318 309 299 285 264 246 233 227 225 219 216 215 215 215 214 215 214 214 215 212 209 210 210 209 208 207 206 207 205 201 201 199 200
342 342 341 341 341 340 339 337 334 329 325 319 309 290 266 245 235 227 223 217 216 215 214 216 215 215 214 215 215 214 211 211 211 211 210 208 208 209 206 205 205 204 203
343 344 344 344 345 344 343 341 338 335 331 327 319 301 270 251 234 223 218 216 216 216 216 216 215 217 216 215 216 215 213 212 213 212 211 211 211 211 209 209 209 209 210
347 348 348 348 348 348 348 347 345 342 338 333 328 311 278 247 232 221 217 216 216 215 214 216 216 215 215 215 215 214 213 214 214 215 214 212 212 213 214 214 214 215 217
349 351 352 351 351 351 352 351 349 351 347 340 333 319 284 247 226 218 217 217 217 217 215 216 215 215 215 216 215 216 217 216 217 216 215 214 216 218 218 216 217 219 220
352 353 353 354 354 354 355 354 351 351 353 351 343 331 302 259 228 217 215 216 218 217 215 214 216 217 217 217 216 218 220 220 219 218 217 219 219 221 221 221 220 222 224
354 354 354 356 357 357 357 358 357 354 355 356 352 345 323 277 237 219 216 217 219 219 216 216 216 218 219 219 218 219 221 220 219 220 221 221 222 223 223 223 224 225 227
355 355 355 356 358 359 360 360 0 0 0 1 359 353 339 315 255 221 220 222 221 221 219 217 217 217 218 220 220 220 221 219 221 222 223 223 224 224 225 227 228 228 229
355 355 355 355 356 358 -0 0 360 360 0 360 360 354 346 331 289 231 226 226 225 224 224 223 222 221 219 220 219 220 219 220 222 223 224 225 226 225 227 229 229 230 231
356 356 355 353 353 355 357 358 358 358 358 356 353 351 341 328 295 255 240 238 230 225 224 226 225 221 219 220 222 222 222 222 223 224 226 227 229 228 229 231 232 233 233
355 355 354 352 352 352 353 354 355 356 357 354 348 341 336 326 305 272 252 243 238 230 226 227 227 224 222 223 224 224 224 225 225 225 228 229 230 232 232 233 234 235 235
353 353 353 351 349 348 349 348 349 350 348 347 346 340 330 320 306 285 262 253 249 240 233 231 229 228 227 227 226 225 225 227 228 228 229 231 233 233 234 235 236 237 237
348 349 349 349 347 345 345 345 343 343 342 340 335 332 326 318 306 288 273 263 256 247 240 235 232 229 229 229 229 228 230 231 230 231 233 234 236 237 237 238 238 239 240
344 343 343 343 343 341 340 339 339 336 335 332 328 322 318 312 306 292 276 265 258 250 241 240 236 233 234 233 234 232 232 231 231 233 234 236 238 238 239 239 239 240 242
337 337 337 337 337 336 334 332 330 330 327 325 322 317 310 305 299 291 279 268 260 253 246 243 239 237 237 235 235 234 233 233 234 235 236 238 239 240 241 241 241 243 243
331 331 330 330 330 330 328 326 324 321 320 317 314 312 305 299 294 288 279 269 262 257 251 246 242 241 240 238 236 236 236 236 237 238 238 240 241 241 243 243 244 245 246
326 325 325 324 323 322 321 319 318 316 313 310 307 304 300 295 291 286 280 272 264 259 255 251 247 243 243 241 238 238 238 239 240 240 239 241 242 243 244 245 245 246 248
320 319 318 318 317 316 314 312 311 310 308 305 302 299 296 290 287 283 278 273 266 260 257 252 248 246 245 243 242 241 241 241 242 242 241 242 243 243 245 246 246 247 248
315 315 314 313 311 309 308 307 305 303 301 299 296 294 291 288 282 279 275 271 267 263 258 253 250 248 247 245 244 244 245 244 244 243 244 244 244 244 246 247 248 248 249
311 310 310 309 307 305 302 301 300 299 297 294 292 288 286 283 281 277 273 270 266 264 260 256 253 251 249 247 246 245 246 247 245 245 245 245 246 246 247 249 249 249 250
308 307 307 306 303 301 299 297 295 294 292 290 288 286 283 279 276 274 271 269 267 264 261 258 256 252 249 247 248 248 247 246 246 246 246 245 245 247 246 247 248 250 251
Height
5841 5839 5837 5834 5832 5829 5827 5825 5823 5821 5820 5819 5819 5819 5820 5821 5823 5825 5828 5830 5833 5837 5841 5844 5848 5852 5855 5859 5862 5865 5868 5871 5873 5876 5878 5881 5883 5885 5887 5889 5891 5893 5894
5839 5836 5834 5831 5828 5825 5823 5821 5818 5817 5815 5814 5814 5814 5815 5817 5819 5821 5824 5827 5830 5834 5838 5841 5845 5849 5853 5857 5860 5863 5866 5869 5872 5875 5877 5880 5882 5885 5887 5889 5891 5893 5895
5836 5834 5831 5828 5825 5822 5819 5817 5814 5812 5811 5810 5810 5810 5811 5813 5815 5817 5820 5823 5827 5831 5835 5839 5843 5847 5851 5854 5858 5861 5864 5867 5870 5873 5876 5879 5882 5884 5887 5889 5891 5893 5895
5834 5831 5828 5825 5822 5819 5816 5813 5811 5809 5807 5806 5806 5806 5807 5809 5811 5814 5817 5820 5824 5828 5832 5836 5840 5844 5848 5852 5856 5859 5862 5866 5869 5872 5875 5878 5881 5883 5886 5888 5891 5893 5895
5832 5829 5826 5823 5820 5817 5814 5811 5808 5806 5804 5803 5802 5802 5803 5805 5807 5810 5813 5817 5821 5825 5829 5833 5837 5841 5845 5849 5853 5857 5860 5864 5867 5870 5873 5876 5879 5882 5885 5887 5890 5892 5894
5831 5828 5825 5821 5818 5815 5812 5809 5806 5803 5801 5800 5799 5799 5800 5802 5804 5807 5810 5814 5817 5822 5826 5830 5834 5838 5842 5847 5851 5854 5858 5861 5865 5868 5871 5874 5877 5880 5883 5886 5889 5891 5893
5829 5826 5823 5820 5817 5813 5810 5807 5804 5801 5799 5798 5797 5797 5797 5799 5801 5804 5807 5811 5815 5819 5823 5827 5831 5835 5840 5844 5848 5852 5855 5859 5862 5866 5869 5872 5876 5879 5882 5885 5887 5890 5892
5828 5825 5822 5819 5815 5812 5809 5806 5803 5800 5798 5796 5796 5795 5796 5798 5799 5802 5805 5808 5812 5816 5820 5824 5828 5832 5837 5841 5845 5849 5853 5856 5860 5863 5867 5870 5874 5877 5880 5883 5886 5888 5891
5827 5824 5821 5818 5814 5811 5808 5805 5802 5799 5797 5796 5794 5794 5795 5796 5797 5800 5803 5806 5809 5813 5817 5822 5825 5830 5834 5838 5842 5846 5850 5854 5857 5861 5865 5868 5871 5875 5878 5881 5884 5886 5889
5826 5823 5820 5817 5814 5811 5808 5805 5802 5799 5797 5795 5794 5794 5794 5795 5796 5799 5802 5804 5808 5811 5815 5819 5823 5827 5831 5835 5839 5843 5847 5851 5855 5858 5862 5865 5869 5872 5875 5878 5881 5884 5886
5825 5822 5820 5816 5813 5810 5807 5804 5802 5799 5797 5795 5794 5794 5794 5795 5796 5798 5800 5803 5806 5810 5813 5817 5821 5824 5828 5832 5836 5840 5844 5848 5852 5855 5859 5862 5866 5869 5872 5875 5878 5881 5884
5825 5822 5819 5816 5813 5810 5807 5805 5802 5800 5797 5796 5795 5794 5794 5795 5796 5797 5799 5802 5805 5808 5811 5814 5818 5822 5825 5829 5833 5837 5841 5845 5848 5852 5855 5859 5862 5865 5869 5872 5875 5878 5880
5824 5822 5819 5816 5814 5811 5808 5805 5803 5800 5798 5797 5795 5795 5795 5795 5796 5797 5799 5801 5803 5806 5809 5812 5815 5819 5822 5826 5830 5833 5837 5841 5845 5848 5852 5855 5858 5861 5865 5868 5871 5874 5877
5824 5821 5819 5816 5814 5811 5808 5806 5803 5801 5799 5797 5796 5796 5795 5796 5796 5797 5799 5800 5802 5805 5807 5810 5813 5816 5819 5823 5827 5830 5834 5837 5841 5844 5848 5851 5854 5858 5861 5864 5867 5870 5872
5823 5821 5818 5816 5814 5811 5809 5806 5804 5802 5800 5798 5797 5796 5796 5796 5796 5797 5798 5799 5801 5803 5805 5808 5810 5813 5817 5820 5823 5827 5831 5834 5837 5841 5844 5847 5850 5854 5857 5859 5862 5865 5868
5823 5820 5818 5816 5813 5811 5809 5806 5804 5802 5800 5799 5798 5797 5796 5796 5796 5797 5797 5798 5800 5801 5803 5806 5808 5811 5814 5817 5820 5824 5827 5830 5833 5837 5840 5843 5846 5849 5852 5855 5858 5860 5863
5822 5820 5818 5815 5813 5811 5809 5806 5804 5802 5801 5799 5798 5797 5796 5796 5796 5796 5796 5797 5798 5799 5801 5803 5805 5807 5810 5813 5816 5819 5823 5826 5829 5832 5835 5839 5842 5844 5847 5850 5852 5855 5858
5821 5819 5817 5814 5812 5810 5808 5806 5804 5802 5800 5799 5797 5796 5796 5795 5795 5795 5795 5795 5796 5797 5799 5800 5802 5804 5806 5809 5812 5815 5818 5821 5824 5827 5831 5834 5837 5839 5842 5845 5847 5849 5852
5820 5818 5815 5813 5811 5809 5806 5804 5803 5801 5799 5798 5796 5795 5794 5794 5793 5793 5793 5793 5794 5794 5796 5797 5799 5801 5803 5805 5808 5811 5814 5816 5819 5822 5825 5828 5831 5834 5836 5839 5841 5844 5846
5818 5816 5814 5811 5809 5807 5805 5803 5801 5799 5798 5796 5795 5793 5792 5792 5791 5790 5790 5790 5791 5792 5793 5794 5795 5797 5799 5801 5804 5806 5809 5811 5814 5817 5819 5822 5825 5828 5830 5833 5835 5838 5840
5815 5813 5811 5808 5806 5804 5802 5800 5798 5796 5795 5794 5792 5791 5790 5789 5788 5787 5787 5787 5788 5788 5789 5790 5791 5793 5795 5797 5799 5801 5804 5806 5809 5811 5814 5816 5819 5821 5824 5826 5829 5831 5833
5811 5809 5807 5805 5802 5800 5798 5796 5795 5793 5791 5790 5789 5787 5786 5785 5784 5784 5783 5783 5784 5785 5785 5786 5787 5789 5790 5792 5794 5796 5798 5801 5803 5806 5808 5810 5812 5815 5817 5819 5821 5824 5826
5807 5804 5802 5800 5798 5796 5793 5791 5790 5788 5787 5785 5784 5783 5782 5781 5780 5779 5779 5779 5779 5780 5780 5781 5783 5784 5785 5787 5789 5790 5792 5795 5797 5799 5801 5803 5805 5808 5810 5812 5814 5816 5818
5801 5798 5796 5794 5791 5789 5787 5785 5783 5782 5781 5779 5778 5777 5776 5775 5775 5774 5774 5774 5774 5774 5775 5776 5777 5778 5779 5781 5783 5784 5786 5788 5790 5792 5794 5796 5798 5800 5802 5804 5806 5808 5810
5793 5791 5788 5786 5783 5781 5779 5777 5776 5774 5773 5772 5771 5770 5769 5768 5768 5767 5767 5767 5767 5768 5768 5769 5770 5771 5772 5774 5776 5778 5779 5781 5783 5785 5787 5789 5791 5793 5794 5796 5798 5800 5802
5784 5782 5779 5776 5773 5771 5769 5767 5765 5764 5764 5763 5762 5761 5760 5760 5759 5759 5759 5759 5760 5760 5761 5761 5762 5764 5765 5766 5768 5770 5772 5773 5775 5777 5779 5781 5783 5785 5787 5788 5790 5792 5794